Simultaneous Nadir Overpasses (SNOs) Predictions

Prediction of SNOs near equator between AQUA and NPP Satellite Orbit:

Table of predicted SNOs near equator for the next 14.0 days since TLE Epoch: 1/22/2017
Index Date (AQUA) Time (AQUA) AQUA Lat,Lon Date (NPP) Time (NPP) NPP Lat,Lon Distance(km) Time Diff (sec)
1 01/24/2017 07:52:23 -5.15, -94.99 01/24/2017 07:42:41 -5.13, -95.20 23.76 582
2 01/24/2017 08:40:38 0.57, 73.61 01/24/2017 08:32:11 0.47, 73.14 53.76 507
3 01/24/2017 09:28:46 3.92,-117.78 01/24/2017 09:21:34 4.09,-118.51 83.72 432
4 01/27/2017 00:08:32 -3.84, 21.17 01/26/2017 23:59:12 -3.78, 20.88 33.25 560
5 01/27/2017 00:56:47 -0.74,-170.23 01/27/2017 00:48:42 -0.87,-170.79 63.41 485
6 01/27/2017 01:44:54 5.29, -1.61 01/27/2017 01:38:05 5.44, -2.43 93.17 409
7 01/29/2017 15:42:53 29.95, -36.61 01/29/2017 15:32:53 30.06, -37.03 42.64 600
8 01/29/2017 16:24:40 -2.48, 137.34 01/29/2017 16:15:42 -2.38, 136.96 42.95 538
9 01/29/2017 17:12:54 -2.16, -54.05 01/29/2017 17:05:12 -2.28, -54.70 72.98 462
10 02/01/2017 07:52:39 5.62, 84.89 02/01/2017 07:42:49 5.60, 84.69 22.61 590
11 02/01/2017 08:40:47 -1.13,-106.50 02/01/2017 08:32:12 -1.04,-106.96 52.64 515
12 02/01/2017 09:29:02 -3.45, 62.10 02/01/2017 09:21:42 -3.62, 61.38 82.56 440
13 02/04/2017 00:08:47 4.27,-158.94 02/03/2017 23:59:19 4.21,-159.22 32.08 568
14 02/04/2017 00:56:55 0.22, 9.67 02/04/2017 00:48:42 0.36, 9.13 62.38 493
15 02/04/2017 01:45:09 -4.86, 178.28 02/04/2017 01:38:12 -5.02, 177.46 92.06 417




NCC Satellite Simultaneous Nadir Overpasses (SNOs) Prediction Service
